Location: ??
(34.7707°N, 135.6540°E)
Time: 20:33:57
(UTC+00:00)

Tiangong - Pass Details

Date: 02 October 2021
Orbit: 382 x 385 km, 41.5° (Epoch: 18 October)

Event Time Altitude Azimuth Distance (km) Brightness Sun altitude
Exits shadow 19:46:27 16° 322° (NW) 1,092 3.0 -14.6°
Maximum altitude 19:48:06 24° 6° (N) 843 2.9 -14.2°
Drops below altitude 10° 19:50:46 10° 63° (ENE) 1,406 5.1 -13.7°
Sets 19:53:02 0° 77° (ENE) 2,247 6.9 -13.2°
